Orbital Elements at Epoch 2459200.5 (2020-Dec-17.0) TDB
Reference: JPL 17 (heliocentric ecliptic J2000)
Element | Value | Uncertainty (1-sigma) | Units |
e | .08162025059587015 | 4.6808e-08 | |
a | 2.561171376981913 | 1.8187e-08 | au |
q | 2.352127927373679 | 1.1876e-07 | au |
i | 12.74072305060987 | 5.6529e-06 | deg |
node | 96.31605155685057 | 1.8728e-05 | deg |
peri | 114.2684642111389 | 4.3794e-05 | deg |
M | 78.2783335681676 | 3.5747e-05 | deg |
tp | 2458874.966672754557 (2020-Jan-26.46667275) | 0.00015033 | TDB |
period | 1497.119221454866 4.10 | 1.5947e-05 4.366e-08 | d yr |
n | .2404618114849667 | 2.5614e-09 | deg/d |
Q | 2.770214826590146 | 1.9672e-08 | au |
|
| | Orbit Determination Parameters
Additional Information
|